Regional Weather Roundup
Issued by NWS Kansas City/Pleasant Hill, MO

Home | Current Version | Previous Version | Graphics & Text | Print | Product List | Glossary Off
Versions: 1 2 3 4 5 6 7 8 9 10 11 12 13 14 15 16 17 18 19 20 21 22 23 24 25 26 27 28 29 30 31 32 33 34 35 36 37 38 39 40 41 42 43 44 45 46 47 48 49 50

000
ASUS43 KEAX 280411
RWREAX

WEATHER ROUNDUP FOR EASTERN KANSAS AND NORTHWEST MISSOURI
NATIONAL WEATHER SERVICE KANSAS CITY/PLEASANT HILL MO
1100 PM CDT SUN JUL 27 2014

KSZ040-057-103>105-MOZ028-029-037-043-280500-
...KANSAS CITY METROPOLITAN AREA...

CITY           SKY/WX    TMP DP  RH WIND       PRES   REMARKS
K.C. INTL      CLEAR     68  59  73 N9        30.13R
K.C. DOWNTOWN  CLEAR     75  58  55 N9        30.11R
LEES SUMMIT    CLEAR     73  58  59 N9        30.12R
OLATHE - IXD   CLEAR     69  59  70 N10       30.13R
OLATHE - OJC   CLEAR     74  58  57 N12       30.12R
LAWRENCE       CLEAR     74  58  57 N10       30.13R

$$

MOZ001>008-011>017-020>025-030>033-038>040-044>046-053-054-280500-
...NORTHERN AND CENTRAL MISSOURI...

CITY           SKY/WX    TMP DP  RH WIND       PRES   REMARKS
ST. JOSEPH     CLEAR     66  60  81 N7        30.14R
MOSBY          CLEAR     70  59  68 NW6       30.12R
WHITEMAN AFB   CLEAR     71  49  45 N12       30.08R
CLINTON        CLEAR     70  63  78 N7        30.09R
SEDALIA        CLEAR     68  60  75 N7        30.08R
WARSAW         NOT AVBL
MARSHALL       CLEAR     73  61  64 N8        30.09S
CHILLICOTHE      N/A     69  56  62 VRB3      30.11R
MOBERLY        CLEAR     70  55  60 NW12      30.08R
KIRKSVILLE     CLEAR     67  57  70 NW7       30.08R

$$

MOZ041-047>049-056>058-063>065-088>090-097-280500-
...EASTERN AND SOUTHERN MISSOURI...

CITY           SKY/WX    TMP DP  RH WIND       PRES   REMARKS
ST. LOUIS INTL CLEAR     74  59  59 NW8       29.99S
SPIRIT OF STL  CLEAR     72  59  63 NW7       29.99S
COLUMBIA       CLEAR     72  57  59 N13       30.05S
JEFFERSON CITY CLEAR     75  58  55 N7        30.04R
MEXICO         CLEAR     68  63  83 NW7       30.05R
HANNIBAL       CLEAR     68  55  64 NW6       30.04S
ROLLA          CLEAR     73  57  57 N14       30.03R
LEBANON        CLEAR     73  55  53 NW5       30.08R
OSAGE BEACH      N/A     75  57  53 N6        30.06R
SPRINGFIELD    CLEAR     72  57  59 N9        30.08R
BRANSON        CLEAR     72  64  78 NW3       30.09R
NEVADA         CLEAR     68  61  77 N6        30.11R
JOPLIN         CLEAR     69  62  78 CALM      30.10R
WEST PLAINS    CLEAR     75  58  55 NW6       30.05R

$$

IAZ060-094-KSZ022-034>040-054-083-096-NEZ052-066-093-280500-
...KANSAS...SOUTHEAST NEBRASKA AND IOWA...

CITY           SKY/WX    TMP DP  RH WIND       PRES   REMARKS
TOPEKA         CLEAR     73  58  59 N8        30.14R
MANHATTAN      CLEAR     73  58  59 N3        30.16R
EMPORIA        CLEAR     72  55  55 N6        30.15R
CHANUTE        CLEAR     72  56  57 N6        30.12R
WICHITA        PTCLDY    78  54  43 N9        30.16R
OMAHA          PTCLDY    67  58  72 N9        30.17R
LINCOLN        CLEAR     71  57  61 NW7       30.19R
LAMONI         CLEAR     65  56  72 NW8       30.11S
DES MOINES     CLEAR     68  57  68 NW12      30.09R

$$



USA.gov is the U.S. government's official web portal to all federal, state and local government web resources and services.